| time (UTC) | temp F | wind direction | speed knots | gust knots | rain 1hr in | rain 24hr in | rain mn in | humidity % | barometer mb |
| 20260502215849 | 82 | 19 | 0.0 | 0.9 | 0.00 | 0.00 | 0.00 | 49 | 1019.7 |
| 20260502214819 | 82 | 328 | 0.9 | 3.5 | 0.00 | 0.00 | 0.00 | 50 | 1019.8 |
| 20260502213819 | 82 | 338 | 0.0 | 1.7 | 0.00 | 0.00 | 0.00 | 49 | 1019.9 |
| 20260502212849 | 82 | 330 | 0.9 | 4.3 | 0.00 | 0.00 | 0.00 | 50 | 1019.9 |
| 20260502211848 | 82 | 319 | 1.7 | 2.6 | 0.00 | 0.00 | 0.00 | 51 | 1019.8 |
| 20260502210818 | 81 | 331 | 0.9 | 2.6 | 0.00 | 0.00 | 0.00 | 51 | 1019.9 |
| 20260502205818 | 80 | 292 | 1.7 | 1.7 | 0.00 | 0.00 | 0.00 | 53 | 1020.0 |
| 20260502204848 | 80 | 32 | 0.0 | 1.7 | 0.00 | 0.00 | 0.00 | 55 | 1020.0 |
| 20260502203848 | 80 | 57 | 0.0 | 0.9 | 0.00 | 0.00 | 0.00 | 55 | 1020.0 |
| 20260502202818 | 78 | 309 | 0.0 | 3.5 | 0.00 | 0.00 | 0.00 | 56 | 1020.1 |
| 20260502201818 | 78 | 34 | 0.0 | 5.2 | 0.00 | 0.00 | 0.00 | 56 | 1020.3 |
| 20260502200848 | 77 | 336 | 0.0 | 1.7 | 0.00 | 0.00 | 0.00 | 58 | 1020.4 |
| 20260502195833 | 77 | 49 | 0.9 | 5.2 | 0.00 | 0.00 | 0.00 | 58 | 1020.6 |
| 20260502194848 | 76 | 315 | 2.6 | 3.5 | 0.00 | 0.00 | 0.00 | 58 | 1020.5 |
| 20260502193848 | 75 | 355 | 0.0 | 2.6 | 0.00 | 0.00 | 0.00 | 61 | 1020.6 |
| 20260502192833 | 74 | 22 | 0.0 | 4.3 | 0.00 | 0.00 | 0.00 | 61 | 1020.8 |
| 20260502191847 | 74 | 11 | 0.0 | 3.5 | 0.00 | 0.00 | 0.00 | 61 | 1020.9 |
| 20260502190847 | 74 | 320 | 1.7 | 7.8 | 0.00 | 0.00 | 0.00 | 61 | 1021.0 |
| 20260502185817 | 74 | 344 | 0.0 | 4.3 | 0.00 | 0.00 | 0.00 | 61 | 1021.1 |
| 20260502184847 | 73 | 5 | 0.0 | 2.6 | 0.00 | 0.00 | 0.00 | 63 | 1021.2 |
| 20260502183817 | 72 | 343 | 0.0 | 1.7 | 0.00 | 0.00 | 0.00 | 63 | 1021.2 |
| 20260502182847 | 72 | 20 | 0.0 | 2.6 | 0.00 | 0.00 | 0.00 | 64 | 1021.4 |
| 20260502181847 | 71 | 347 | 0.0 | 1.7 | 0.00 | 0.00 | 0.00 | 64 | 1021.5 |
| 20260502180817 | 71 | 51 | 0.9 | 3.5 | 0.00 | 0.00 | 0.00 | 66 | 1021.6 |
| 20260502163846 | 65 | 75 | 0.0 | 3.5 | 0.00 | 0.00 | 0.00 | 76 | 1022.2 |
| 20260502162846 | 64 | 30 | 0.0 | 4.3 | 0.00 | 0.00 | 0.00 | 76 | 1022.2 |
| 20260502161816 | 64 | 319 | 0.9 | 3.5 | 0.00 | 0.00 | 0.00 | 78 | 1022.3 |
| 20260502160815 | 63 | 47 | 0.9 | 3.5 | 0.00 | 0.00 | 0.00 | 79 | 1022.1 |
| 20260502151816 | 60 | 40 | 0.0 | 3.5 | 0.00 | 0.00 | 0.00 | 84 | 1021.8 |
| 20260502150815 | 60 | 355 | 1.7 | 7.8 | 0.00 | 0.00 | 0.00 | 84 | 1021.9 |
| 20260502122844 | 53 | 307 | 0.0 | 0.0 | 0.00 | 0.00 | 0.00 | 89 | 1020.1 |
| 20260502121814 | 53 | 307 | 0.0 | 0.0 | 0.00 | 0.00 | 0.00 | 89 | 1020.0 |
| 20260502120845 | 53 | 307 | 0.0 | 0.0 | 0.00 | 0.00 | 0.00 | 89 | 1020.0 |
| 20260502115844 | 53 | 307 | 0.0 | 0.0 | 0.00 | 0.00 | 0.00 | 89 | 1019.9 |
| 20260502114844 | 53 | 307 | 0.0 | 0.0 | 0.00 | 0.00 | 0.00 | 89 | 1019.7 |
| 20260502113844 | 54 | 307 | 0.0 | 0.0 | 0.00 | 0.00 | 0.00 | 88 | 1019.6 |
| 20260502112844 | 54 | 307 | 0.0 | 0.9 | 0.00 | 0.00 | 0.00 | 88 | 1019.5 |
| 20260502111844 | 54 | 307 | 0.0 | 1.7 | 0.00 | 0.00 | 0.00 | 88 | 1019.4 |
| 20260502110844 | 54 | 307 | 0.0 | 1.7 | 0.00 | 0.00 | 0.00 | 88 | 1019.3 |
| 20260502105844 | 54 | 307 | 0.0 | 3.5 | 0.00 | 0.00 | 0.00 | 88 | 1019.0 |
| 20260502104844 | 54 | 316 | 0.0 | 4.3 | 0.00 | 0.00 | 0.00 | 89 | 1018.9 |
| 20260502103844 | 54 | 300 | 4.3 | 4.3 | 0.00 | 0.00 | 0.00 | 89 | 1018.9 |
| 20260502102844 | 54 | 320 | 0.0 | 1.7 | 0.00 | 0.00 | 0.00 | 89 | 1019.0 |
| 20260502101844 | 54 | 320 | 0.0 | 2.6 | 0.00 | 0.00 | 0.00 | 89 | 1018.8 |
| 20260502100844 | 54 | 327 | 0.0 | 1.7 | 0.00 | 0.00 | 0.00 | 89 | 1018.8 |
| 20260502090843 | 54 | 330 | 0.9 | 1.7 | 0.00 | 0.00 | 0.00 | 88 | 1017.9 |
| 20260502070842 | 56 | 67 | 0.0 | 0.0 | 0.00 | 0.00 | 0.00 | 88 | 1017.5 |
| 20260502065842 | 56 | 40 | 0.0 | 0.0 | 0.00 | 0.00 | 0.00 | 88 | 1017.3 |
| 20260502064842 | 56 | 47 | 0.0 | 0.0 | 0.00 | 0.00 | 0.00 | 88 | 1017.5 |
| 20260502063842 | 56 | 24 | 0.0 | 0.0 | 0.00 | 0.00 | 0.00 | 88 | 1017.5 |
| 20260502062842 | 56 | 5 | 0.0 | 0.0 | 0.00 | 0.00 | 0.00 | 88 | 1017.6 |
| 20260502061842 | 56 | 40 | 0.0 | 0.0 | 0.00 | 0.00 | 0.00 | 88 | 1017.6 |
| 20260502060842 | 56 | 47 | 0.0 | 0.9 | 0.00 | 0.00 | 0.00 | 88 | 1017.7 |
| 20260502055841 | 56 | 311 | 0.0 | 1.7 | 0.00 | 0.00 | 0.00 | 88 | 1017.6 |
| 20260502054841 | 56 | 329 | 0.9 | 1.7 | 0.00 | 0.00 | 0.00 | 88 | 1017.6 |
| 20260502053841 | 56 | 34 | 0.9 | 3.5 | 0.00 | 0.00 | 0.00 | 89 | 1017.3 |
| 20260502052841 | 56 | 49 | 1.7 | 1.7 | 0.00 | 0.00 | 0.00 | 88 | 1017.5 |
| 20260502051841 | 56 | 65 | 0.9 | 3.5 | 0.00 | 0.00 | 0.00 | 88 | 1017.4 |
| 20260502050841 | 56 | 56 | 0.0 | 2.6 | 0.00 | 0.00 | 0.00 | 88 | 1017.5 |
| 20260502045841 | 56 | 51 | 1.7 | 3.5 | 0.00 | 0.00 | 0.00 | 88 | 1017.5 |
| 20260502044841 | 56 | 63 | 1.7 | 4.3 | 0.00 | 0.00 | 0.00 | 89 | 1017.5 |
| 20260502043840 | 56 | 345 | 0.0 | 1.7 | 0.00 | 0.00 | 0.00 | 89 | 1017.4 |
| 20260502042826 | 56 | 313 | 3.5 | 3.5 | 0.00 | 0.00 | 0.00 | 89 | 1017.5 |
| 20260502041827 | 56 | 5 | 1.7 | 7.8 | 0.00 | 0.00 | 0.00 | 89 | 1017.5 |
| 20260502040826 | 56 | 5 | 2.6 | 4.3 | 0.00 | 0.00 | 0.00 | 89 | 1017.5 |
| 20260502035827 | 56 | 5 | 0.9 | 2.6 | 0.00 | 0.00 | 0.00 | 89 | 1017.5 |
| 20260502034827 | 57 | 30 | 0.0 | 1.7 | 0.00 | 0.00 | 0.00 | 90 | 1017.4 |
| 20260502033826 | 57 | 36 | 0.0 | 1.7 | 0.00 | 0.00 | 0.00 | 90 | 1017.5 |
| 20260502032827 | 57 | 148 | 0.0 | 2.6 | 0.00 | 0.00 | 0.00 | 89 | 1017.4 |
| 20260502031826 | 57 | 20 | 0.9 | 3.5 | 0.00 | 0.00 | 0.00 | 89 | 1017.4 |
| 20260502030826 | 57 | 304 | 0.0 | 3.5 | 0.00 | 0.00 | 0.00 | 90 | 1017.2 |
| 20260502025826 | 57 | 41 | 0.9 | 3.5 | 0.00 | 0.00 | 0.00 | 90 | 1017.0 |
| 20260502024826 | 57 | 26 | 1.7 | 2.6 | 0.00 | 0.00 | 0.00 | 90 | 1016.7 |
| 20260502023826 | 57 | 355 | 1.7 | 2.6 | 0.00 | 0.00 | 0.00 | 90 | 1016.3 |
| 20260502022826 | 57 | 47 | 0.9 | 1.7 | 0.00 | 0.00 | 0.00 | 90 | 1015.7 |
| 20260502021825 | 57 | 5 | 0.0 | 2.6 | 0.00 | 0.00 | 0.00 | 90 | 1015.8 |
| 20260502020825 | 57 | 36 | 0.0 | 0.0 | 0.00 | 0.00 | 0.00 | 90 | 1015.8 |
| 20260502015825 | 57 | 46 | 0.0 | 0.0 | 0.00 | 0.00 | 0.00 | 90 | 1016.0 |
| 20260502014825 | 57 | 14 | 0.0 | 3.5 | 0.00 | 0.00 | 0.00 | 90 | 1015.9 |
| 20260502013825 | 57 | 30 | 0.9 | 2.6 | 0.00 | 0.00 | 0.00 | 90 | 1015.6 |
| 20260502012825 | 57 | 305 | 0.0 | 2.6 | 0.00 | 0.00 | 0.00 | 90 | 1015.4 |
| 20260502011825 | 57 | 321 | 0.0 | 2.6 | 0.00 | 0.00 | 0.00 | 90 | 1015.4 |
| 20260502010825 | 57 | 107 | 0.9 | 3.5 | 0.00 | 0.00 | 0.00 | 90 | 1015.3 |
| 20260502005825 | 58 | 337 | 0.9 | 2.6 | 0.00 | 0.00 | 0.00 | 89 | 1014.8 |
| 20260502004825 | 58 | 346 | 1.7 | 2.6 | 0.00 | 0.00 | 0.00 | 89 | 1014.8 |
| 20260502003825 | 58 | 46 | 0.0 | 2.6 | 0.00 | 0.00 | 0.00 | 89 | 1015.2 |
| 20260502002825 | 58 | 327 | 2.6 | 3.5 | 0.00 | 0.00 | 0.00 | 89 | 1015.4 |
| 20260502001825 | 58 | 335 | 0.0 | 4.3 | 0.00 | 0.00 | 0.00 | 89 | 1014.9 |
| 20260502000825 | 59 | 319 | 1.7 | 2.6 | 0.00 | 0.00 | 0.00 | 89 | 1014.6 |
| 20260501235824 | 59 | 355 | 0.9 | 2.6 | 0.00 | 0.00 | 0.00 | 89 | 1014.4 |
| 20260501234824 | 59 | 360 | 0.9 | 2.6 | 0.00 | 0.00 | 0.00 | 89 | 1014.3 |
| 20260501233824 | 60 | 17 | 0.0 | 2.6 | 0.00 | 0.00 | 0.00 | 89 | 1014.3 |
| 20260501232824 | 60 | 315 | 0.0 | 4.3 | 0.00 | 0.00 | 0.00 | 89 | 1014.1 |
| 20260501231824 | 60 | 328 | 0.9 | 5.2 | 0.00 | 0.00 | 0.00 | 90 | 1012.9 |
| 20260501230824 | 60 | 30 | 0.0 | 1.7 | 0.00 | 0.00 | 0.00 | 90 | 1012.2 |
| 20260501225824 | 60 | 53 | 0.9 | 7.8 | 0.00 | 0.00 | 0.00 | 90 | 1012.7 |
| 20260501224824 | 60 | 344 | 0.9 | 4.3 | 0.00 | 0.00 | 0.00 | 90 | 1013.4 |
| 20260501223824 | 61 | 355 | 1.7 | 4.3 | 0.00 | 0.00 | 0.00 | 90 | 1011.6 |
| 20260501222824 | 61 | 54 | 2.6 | 6.1 | 0.00 | 0.00 | 0.00 | 90 | 1011.1 |
| 20260501221824 | 61 | 38 | 0.9 | 4.3 | 0.00 | 0.00 | 0.00 | 90 | 1011.6 |
| 20260501220824 | 61 | 42 | 0.0 | 5.2 | 0.00 | 0.00 | 0.00 | 90 | 1012.2 |